UAL1227 KRDU-KEWR

Flight info

Callsign UAL1227
Flight time N/A
Altitude 31000
Route OXFRD5 CARML QUART PHLBO4
Aircraft A20N/M-SDE2E3FGHIJ1RWXY/LB1

Departure

Time 2026-05-06 14:19
Airport Raleigh-Durham International Airport (KRDU)

Arrival

Time N/A
Airport Newark Liberty International Airport (KEWR)
Time Latitude Longitude Altitude Speed Heading
2026-05-06 13:52 35.87899 -78.79232 392 ft 0 kts 135°
2026-05-06 14:09 35.87900 -78.79233 392 ft 0 kts 135°
2026-05-06 14:09 35.87907 -78.79241 392 ft 2 kts 134°
2026-05-06 14:09 35.87917 -78.79254 391 ft 2 kts 135°
2026-05-06 14:10 35.87928 -78.79267 390 ft 2 kts 135°
2026-05-06 14:10 35.87935 -78.79275 390 ft 2 kts 135°
2026-05-06 14:10 35.87939 -78.79291 389 ft 2 kts 75°
2026-05-06 14:10 35.87935 -78.79300 389 ft 1 kts 43°
2026-05-06 14:11 35.87929 -78.79306 389 ft 0 kts 44°
2026-05-06 14:12 35.87932 -78.79303 389 ft 2 kts 44°
2026-05-06 14:12 35.87963 -78.79264 390 ft 9 kts 46°
2026-05-06 14:13 35.88010 -78.79206 391 ft 10 kts 45°
2026-05-06 14:13 35.88060 -78.79144 392 ft 9 kts 45°
2026-05-06 14:13 35.88108 -78.79083 394 ft 9 kts 45°
2026-05-06 14:13 35.88135 -78.79015 396 ft 8 kts 98°
2026-05-06 14:14 35.88112 -78.78969 399 ft 5 kts 134°
2026-05-06 14:14 35.88081 -78.78932 401 ft 9 kts 136°
2026-05-06 14:14 35.88025 -78.78867 406 ft 11 kts 133°
2026-05-06 14:14 35.87980 -78.78812 410 ft 7 kts 142°
2026-05-06 14:15 35.87934 -78.78776 414 ft 8 kts 154°
2026-05-06 14:15 35.87880 -78.78755 416 ft 8 kts 165°
2026-05-06 14:15 35.87830 -78.78727 419 ft 7 kts 144°
2026-05-06 14:15 35.87780 -78.78675 422 ft 11 kts 135°
2026-05-06 14:16 35.87725 -78.78609 425 ft 11 kts 136°
2026-05-06 14:16 35.87671 -78.78543 427 ft 10 kts 135°
2026-05-06 14:16 35.87651 -78.78470 429 ft 10 kts 69°
2026-05-06 14:16 35.87700 -78.78400 430 ft 10 kts 45°
2026-05-06 14:17 35.87736 -78.78356 431 ft 10 kts 45°
2026-05-06 14:17 35.87816 -78.78257 430 ft 14 kts 45°
2026-05-06 14:17 35.87891 -78.78163 427 ft 13 kts 45°
2026-05-06 14:17 35.87954 -78.78085 423 ft 10 kts 45°
2026-05-06 14:18 35.87956 -78.78001 422 ft 12 kts 135°
2026-05-06 14:18 35.87896 -78.77972 420 ft 8 kts 204°
2026-05-06 14:18 35.87859 -78.78011 422 ft 7 kts 225°
2026-05-06 14:18 35.87660 -78.78258 430 ft 77 kts 224°
2026-05-06 14:19 35.87114 -78.78928 420 ft 141 kts 224°
2026-05-06 14:19 35.86368 -78.79829 909 ft 151 kts 224°
2026-05-06 14:19 35.85644 -78.80730 1614 ft 153 kts 225°
2026-05-06 14:19 35.84878 -78.81699 2096 ft 166 kts 225°
2026-05-06 14:20 35.84029 -78.82760 2500 ft 186 kts 223°
2026-05-06 14:20 35.82862 -78.83565 3065 ft 203 kts 193°
2026-05-06 14:20 35.81477 -78.83607 3997 ft 204 kts 183°
2026-05-06 14:20 35.80061 -78.83387 4738 ft 216 kts 168°
2026-05-06 14:21 35.78817 -78.82233 5429 ft 242 kts 128°
2026-05-06 14:21 35.78356 -78.80197 6143 ft 260 kts 87°
2026-05-06 14:21 35.78942 -78.78130 6855 ft 263 kts 47°
2026-05-06 14:21 35.80371 -78.76850 7620 ft 252 kts 11°
2026-05-06 14:22 35.82070 -78.76375 8229 ft 257 kts
2026-05-06 14:22 35.83876 -78.76037 8696 ft 274 kts
2026-05-06 14:22 35.85834 -78.75632 9169 ft 293 kts
2026-05-06 14:22 35.87880 -78.75137 9813 ft 304 kts
2026-05-06 14:23 35.89951 -78.74577 10574 ft 310 kts
2026-05-06 14:23 35.92094 -78.73979 11013 ft 327 kts
2026-05-06 14:23 35.94381 -78.73330 11395 ft 345 kts
2026-05-06 14:23 35.96777 -78.72639 11833 ft 360 kts
2026-05-06 14:24 35.99229 -78.71917 12509 ft 366 kts
2026-05-06 14:24 36.01724 -78.71178 13262 ft 369 kts
2026-05-06 14:24 36.04225 -78.70436 13994 ft 373 kts
2026-05-06 14:24 36.06723 -78.69698 14706 ft 375 kts
2026-05-06 14:25 36.09262 -78.68951 15458 ft 376 kts
2026-05-06 14:25 36.11813 -78.68201 16160 ft 378 kts
2026-05-06 14:25 36.14378 -78.67447 16878 ft 379 kts
2026-05-06 14:25 36.16946 -78.66688 17562 ft 381 kts
2026-05-06 14:26 36.19518 -78.65931 18220 ft 383 kts
2026-05-06 14:26 36.22116 -78.65161 18862 ft 385 kts
2026-05-06 14:26 36.24730 -78.64394 19411 ft 390 kts
2026-05-06 14:26 36.27365 -78.63618 19980 ft 393 kts
2026-05-06 14:27 36.30006 -78.62836 20544 ft 396 kts
2026-05-06 14:27 36.32714 -78.62033 21106 ft 399 kts
2026-05-06 14:27 36.35431 -78.61221 21632 ft 403 kts
2026-05-06 14:27 36.38126 -78.60301 22123 ft 409 kts
2026-05-06 14:28 36.40866 -78.59324 22634 ft 412 kts
2026-05-06 14:28 36.43633 -78.58328 23157 ft 415 kts
2026-05-06 14:28 36.46480 -78.57304 23714 ft 417 kts
2026-05-06 14:28 36.49371 -78.56265 24197 ft 421 kts
2026-05-06 14:29 36.52193 -78.55254 24612 ft 426 kts
2026-05-06 14:29 36.55147 -78.54195 25113 ft 428 kts
2026-05-06 14:29 36.58195 -78.53097 25603 ft 431 kts
2026-05-06 14:29 36.61232 -78.52007 25977 ft 436 kts
2026-05-06 14:30 36.64261 -78.50919 26392 ft 439 kts
2026-05-06 14:30 36.67269 -78.49834 26809 ft 442 kts
2026-05-06 14:30 36.70382 -78.48714 27196 ft 446 kts
2026-05-06 14:30 36.73459 -78.47374 27602 ft 455 kts 15°
2026-05-06 14:31 36.76435 -78.45641 27973 ft 463 kts 22°
2026-05-06 14:31 36.79299 -78.43514 28425 ft 468 kts 26°
2026-05-06 14:31 36.82137 -78.41212 28937 ft 469 kts 27°
2026-05-06 14:31 36.84938 -78.38895 29508 ft 466 kts 27°
2026-05-06 14:32 36.87756 -78.36570 29943 ft 467 kts 26°
2026-05-06 14:32 36.90619 -78.34221 30250 ft 471 kts 27°
2026-05-06 14:32 36.93463 -78.31895 30554 ft 474 kts 26°
2026-05-06 14:32 36.96264 -78.29607 30889 ft 474 kts 26°
2026-05-06 14:33 37.02017 -78.24917 30936 ft 476 kts 26°
2026-05-06 14:33 37.07709 -78.20275 30926 ft 480 kts 26°
2026-05-06 14:34 37.13500 -78.15540 30933 ft 479 kts 26°